GFSFLT1_sfc_dewp_009.txt.gz
Dewpoint
53 55 56 58 60 63 64 65 67 68 71 72 72 72 74 75 75 73 72 71 68 68 68 67 67 68 68 69 67 66 68 66 65
53 54 56 58 60 62 64 66 68 69 71 72 72 71 74 74 75 74 72 71 70 68 69 65 67 67 68 67 65 66 68 63 66
51 55 57 58 60 62 64 65 67 69 70 71 72 71 73 73 73 74 73 71 69 68 68 67 67 67 66 65 65 65 67 65 65
51 55 58 59 61 62 64 65 66 67 68 71 71 71 73 73 72 72 72 70 68 67 68 67 67 67 65 65 64 65 66 66 65
50 57 59 59 61 62 62 64 64 65 67 67 70 72 73 72 72 71 69 69 66 68 65 66 66 66 66 65 64 65 66 65 62
53 55 57 60 60 63 63 64 66 65 67 66 67 71 70 71 70 69 70 66 65 66 66 66 64 65 65 65 64 66 66 65 64
53 55 59 60 61 64 66 67 68 68 67 66 67 68 70 70 69 70 67 66 66 66 65 66 66 65 65 65 65 65 64 62 64
53 54 57 60 61 65 68 68 69 68 67 69 69 70 70 70 70 69 69 68 66 64 65 65 65 65 65 65 63 59 63 63 63
53 53 55 58 61 62 64 66 67 67 68 69 70 71 70 70 71 69 69 68 66 65 64 64 65 63 64 65 60 59 60 62 63
54 54 55 57 60 63 63 64 65 65 67 68 70 71 71 70 70 69 68 68 67 66 65 64 64 63 63 65 65 59 59 61 62
54 55 56 57 56 60 62 62 62 65 66 69 70 71 71 71 70 69 68 68 68 67 65 67 64 64 65 66 64 59 57 60 63
51 53 56 57 57 59 62 62 63 65 67 68 69 70 71 71 70 69 68 68 67 68 67 66 66 65 65 65 65 58 57 61 63
51 53 56 59 60 61 62 63 64 65 66 67 68 69 71 71 70 69 68 68 66 67 66 65 65 65 66 63 66 57 56 60 63
58 59 60 62 63 63 65 66 66 67 67 67 69 71 71 71 70 70 69 67 68 67 66 64 64 66 66 65 64 64 55 55 64
57 58 58 59 62 64 66 67 68 68 68 69 70 71 70 69 69 68 66 66 66 67 66 64 62 64 61 62 63 57 55 54 55
60 62 62 63 63 65 66 68 68 68 69 69 69 70 68 68 68 67 66 65 65 64 64 62 62 61 61 58 60 61 52 52 52
61 62 63 63 64 64 66 67 67 68 68 69 68 68 67 68 67 66 66 64 64 65 64 62 61 60 62 62 62 60 58 56 54
62 63 63 64 65 65 66 67 67 67 68 67 66 66 66 65 63 64 64 60 61 61 63 59 62 61 62 61 61 59 54 53 55
59 61 64 64 65 65 65 66 66 67 67 67 66 64 62 61 59 60 59 58 55 44 45 44 44 45 55 54 48 45 44 44 42
54 55 58 62 64 64 65 66 66 66 66 66 65 64 63 60 59 59 60 58 58 56 47 42 41 42 43 46 43 41 40 39 40

GFSFLT1_sfc_dewp_015.txt.gz
Dewpoint
38 47 50 49 53 57 61 63 68 69 73 77 78 77 78 78 78 71 70 72 67 63 62 64 74 71 69 67 68 68 69 64 63
33 45 50 50 51 54 59 62 67 70 73 76 76 74 78 78 78 77 71 74 75 67 70 63 67 70 69 67 67 68 69 63 66
34 42 49 49 50 52 58 59 64 68 71 74 74 75 76 75 77 78 77 77 76 73 71 71 71 69 68 67 67 67 68 66 66
32 39 47 49 49 51 55 57 61 64 68 72 73 74 74 75 74 75 77 76 76 76 73 73 71 71 68 67 67 66 67 67 65
33 37 45 49 49 51 53 57 57 60 63 64 69 72 74 75 75 75 74 76 76 77 75 73 72 71 70 68 68 68 67 65 63
35 38 41 48 50 51 53 55 59 57 61 60 63 70 70 73 74 75 74 76 76 76 76 74 70 70 69 69 67 66 67 67 67
34 36 50 48 51 55 56 59 63 62 60 59 61 64 66 71 73 74 74 76 76 76 76 74 70 71 70 69 67 66 65 66 66
34 34 45 53 54 61 64 64 66 66 63 65 63 66 66 69 74 75 75 75 76 76 76 73 71 71 70 69 66 64 64 66 66
34 35 36 52 56 59 65 66 68 68 68 67 67 70 69 71 75 75 75 76 77 77 76 74 72 70 69 67 64 61 63 66 66
36 35 38 45 55 58 63 64 69 68 70 69 71 72 74 74 76 76 77 77 77 76 75 73 71 70 68 67 65 61 61 63 63
37 40 42 43 51 58 64 63 63 67 68 73 73 75 74 76 76 77 77 77 76 75 73 71 70 70 68 65 65 61 61 62 64
37 36 40 41 53 57 67 66 69 70 69 72 73 74 75 76 76 76 76 76 75 73 71 70 68 67 67 67 68 60 58 61 63
33 42 43 45 56 58 64 68 65 69 67 69 71 72 73 75 75 76 75 74 74 73 72 69 67 66 65 63 67 58 57 60 64
40 47 49 57 60 64 68 67 65 70 69 69 69 69 70 73 74 75 75 75 73 72 71 69 68 66 66 67 66 65 55 55 64
53 52 55 59 62 64 67 68 69 71 71 72 72 72 72 74 75 72 72 74 72 71 69 67 66 66 66 67 70 61 55 54 56
59 60 60 60 62 66 67 70 70 71 75 75 74 74 74 74 74 72 73 72 70 68 67 65 65 64 67 68 68 69 54 54 54
59 61 62 63 64 65 69 72 71 73 73 73 73 74 72 72 71 70 70 69 68 66 66 66 66 66 66 66 64 62 63 61 59
58 59 60 62 64 66 68 70 70 71 72 72 71 70 69 69 68 68 66 62 63 67 61 62 67 64 64 61 61 62 58 58 60
61 61 62 63 65 66 69 70 70 71 72 71 70 69 67 66 67 65 63 61 59 45 47 45 44 47 56 57 51 46 45 44 46
55 60 62 63 64 66 68 69 69 70 71 70 70 67 67 63 63 63 63 62 61 60 51 44 42 43 46 49 47 42 41 41 42

GFSFLT1_sfc_dewp_021.txt.gz
Dewpoint
45 46 48 49 54 56 59 61 66 70 71 71 73 73 74 73 74 70 71 72 70 67 67 68 70 71 68 67 66 69 68 66 66
43 43 49 50 51 55 59 61 66 67 72 72 73 74 74 73 73 74 74 71 72 68 66 69 69 71 68 67 67 66 68 66 64
42 43 48 51 51 54 59 61 65 67 72 72 73 72 74 74 74 73 74 72 71 70 67 70 69 71 69 68 67 67 68 65 66
38 42 45 51 52 54 59 61 63 67 71 72 73 73 72 74 75 74 73 73 72 70 70 70 70 70 69 67 67 68 67 65 64
40 42 48 51 52 54 60 60 61 66 71 72 73 74 74 72 74 74 73 72 73 72 69 70 70 70 69 67 65 67 67 64 64
42 44 50 51 51 55 58 60 61 64 69 72 73 74 74 74 73 74 74 72 73 74 71 71 70 70 69 67 66 66 67 65 64
40 45 48 49 51 54 57 60 62 62 66 70 72 73 73 73 73 73 74 74 72 73 74 71 70 69 68 67 66 67 66 65 65
39 43 53 52 51 53 56 58 61 62 64 66 70 72 72 72 73 73 74 73 74 73 73 72 70 69 68 68 66 67 65 65 65
33 39 51 53 53 52 54 56 59 61 63 64 66 70 71 71 71 72 72 73 73 74 72 74 71 69 70 69 67 64 64 65 64
37 40 50 52 54 58 55 57 58 61 63 64 65 67 70 70 70 71 72 72 73 74 74 74 73 71 69 69 68 63 63 65 65
31 46 47 53 56 58 62 59 59 60 61 63 64 65 67 69 70 70 72 72 73 72 74 73 74 72 70 69 69 62 62 64 64
34 26 35 42 54 58 60 62 61 60 61 63 63 63 65 68 69 70 71 72 72 73 72 74 74 73 70 70 67 60 60 62 63
47 42 38 34 39 53 62 61 63 61 61 61 63 62 66 67 68 69 71 72 72 72 73 74 73 70 70 67 67 59 58 59 62
52 50 43 39 44 53 60 63 65 63 61 61 63 66 68 69 70 71 72 72 73 74 73 71 70 69 68 67 66 62 57 56 62
50 54 53 48 46 60 65 65 66 66 66 67 67 73 72 76 75 75 76 75 74 72 71 70 68 67 66 66 66 61 56 56 57
62 61 64 69 70 70 70 69 68 69 73 73 74 73 74 75 74 76 74 72 71 70 69 68 67 66 65 65 66 65 56 54 55
66 68 67 69 69 71 72 74 74 74 73 73 73 73 74 72 72 71 71 70 70 69 67 67 65 65 64 65 65 63 59 58 56
66 67 69 71 72 72 72 73 73 73 73 74 72 72 71 70 69 66 60 54 60 66 61 63 65 65 65 65 64 63 60 59 60
62 66 67 67 69 70 71 73 72 72 72 71 70 68 68 66 65 63 61 59 55 46 46 46 48 53 61 55 54 53 50 50 51
57 59 66 67 67 68 69 70 70 71 70 70 69 67 67 66 64 64 63 61 59 56 50 45 45 45 49 51 47 46 45 44 45

GFSFLT1_sfc_dewp_024.txt.gz
Dewpoint
45 45 49 51 53 56 57 60 64 67 68 67 70 70 71 70 70 70 70 70 70 71 69 68 71 70 68 66 66 66 66 64 64
45 44 46 48 53 56 57 60 65 67 68 68 70 70 69 71 72 70 69 70 70 70 69 67 70 70 67 66 65 67 67 64 64
45 46 45 46 49 54 58 59 65 67 69 68 69 71 71 70 70 72 71 72 71 68 67 68 69 69 67 66 64 66 67 65 64
45 47 47 48 48 53 57 59 64 67 69 68 70 71 71 71 71 70 72 73 71 70 67 67 68 69 68 66 65 65 66 65 65
44 46 46 50 49 51 55 59 63 66 70 69 70 71 72 72 72 72 71 71 72 71 68 68 68 69 68 67 66 65 66 65 64
41 43 45 49 51 51 55 58 61 65 69 70 70 71 71 72 73 73 71 70 71 71 70 69 69 68 69 67 66 66 66 65 64
41 44 48 47 51 52 55 58 60 64 67 70 71 71 71 71 72 73 73 71 71 71 71 69 69 69 69 68 66 65 67 66 64
42 41 50 49 51 53 57 59 60 63 66 70 71 71 72 71 71 72 73 73 72 71 73 70 70 69 69 68 67 65 65 66 65
38 36 38 49 51 53 55 59 60 61 65 69 71 71 71 72 72 72 72 73 73 72 72 73 70 69 69 68 67 64 64 65 65
39 37 47 50 51 53 55 59 60 60 64 68 70 71 72 72 72 73 73 73 73 73 72 72 71 69 69 68 67 62 63 65 65
33 40 43 52 52 52 56 57 60 61 62 65 69 70 71 72 72 72 72 73 73 73 74 72 73 71 69 69 68 62 61 64 66
34 34 40 49 55 54 54 55 58 60 62 64 65 67 70 71 71 71 72 72 72 72 73 73 73 73 70 69 69 61 60 64 66
45 45 42 38 55 59 60 56 57 59 60 63 64 65 66 70 71 71 71 71 71 72 72 73 73 73 71 68 70 59 58 63 65
49 47 50 45 37 49 58 62 58 58 60 61 63 64 65 67 69 70 70 71 71 71 73 73 73 72 70 69 67 60 56 58 64
54 49 50 51 43 40 49 60 60 59 59 60 62 63 64 65 68 69 70 71 72 72 73 72 70 68 67 68 66 59 55 56 58
67 68 68 69 51 42 48 61 62 61 60 61 62 63 64 67 67 68 71 72 73 73 71 70 68 68 66 66 66 63 56 55 55
66 68 69 70 70 68 69 68 63 62 64 64 66 66 67 71 72 73 73 73 73 72 70 68 67 67 66 66 65 65 61 59 56
64 66 67 68 69 70 70 71 71 72 72 68 71 73 73 73 72 71 65 58 64 69 65 66 66 66 65 65 64 62 58 57 58
60 63 66 65 65 66 68 68 70 73 73 72 72 71 69 67 64 62 61 60 57 50 51 51 51 54 60 58 56 50 48 47 47
58 62 64 66 66 67 68 59 57 69 71 71 70 68 66 64 64 64 64 63 61 57 53 46 46 49 50 54 52 47 46 45 45

GFSFLT1_sfc_dewp_030.txt.gz
Dewpoint
50 53 55 56 57 58 59 62 64 66 67 67 68 68 68 69 70 68 69 69 69 69 70 70 72 72 72 70 69 68 67 65 64
45 47 52 54 56 57 58 60 63 66 67 67 68 68 69 69 69 70 69 69 69 69 71 71 72 72 72 71 69 68 67 65 65
44 45 47 51 54 56 57 58 61 64 66 67 67 68 69 69 69 70 70 70 69 69 70 71 71 72 72 71 69 68 67 65 66
44 45 46 47 52 54 56 57 60 62 65 66 67 69 69 69 69 70 70 69 70 70 70 71 70 71 71 70 69 67 67 66 65
46 47 48 48 50 52 54 56 58 61 64 65 66 69 70 69 70 70 70 70 70 70 70 70 70 71 71 70 69 68 67 66 65
40 48 50 50 49 51 53 55 57 59 62 64 65 67 69 69 69 69 70 70 70 70 70 70 69 70 70 69 69 67 67 67 66
41 47 48 50 50 50 52 55 57 59 61 63 64 65 67 68 69 69 70 70 70 71 71 69 69 69 70 69 69 68 67 67 67
36 42 47 50 51 51 53 56 58 60 62 64 65 66 66 67 68 69 70 70 71 71 71 70 69 69 69 69 68 67 67 66 66
31 33 38 46 52 53 52 55 58 60 63 64 66 66 66 68 69 69 70 70 70 71 71 71 70 69 69 69 68 64 64 66 66
27 29 39 45 49 52 52 53 57 59 63 65 66 67 67 68 69 70 70 71 71 70 70 71 71 70 69 69 69 62 63 65 67
27 31 36 44 45 49 53 53 54 58 62 65 67 67 68 69 70 70 70 71 71 71 70 70 71 70 70 70 69 61 61 64 68
30 33 40 43 47 51 56 56 58 60 62 65 67 68 68 69 70 70 70 71 71 71 71 70 70 70 70 70 70 60 60 62 67
37 39 42 46 50 53 54 58 59 60 61 64 66 68 69 70 70 70 70 70 71 72 72 71 71 71 71 68 70 60 58 62 67
45 45 49 52 53 57 58 60 61 60 61 63 66 68 69 70 71 71 70 71 71 71 72 72 72 71 72 71 70 68 57 58 68
58 63 66 63 60 60 52 60 62 63 63 65 67 69 70 70 71 71 71 72 72 72 72 72 72 72 71 71 72 63 57 56 63
67 67 68 68 68 69 70 64 62 61 63 65 66 67 69 70 71 72 72 72 72 72 72 71 72 71 71 71 71 65 55 56 58
65 65 67 68 67 66 66 66 66 66 68 69 65 65 67 68 70 70 72 71 72 71 71 71 71 71 71 71 66 64 60 61 62
63 63 63 63 62 59 58 58 58 58 60 66 67 65 65 66 67 68 70 67 69 72 72 70 72 72 72 69 64 62 59 59 63
61 60 60 62 64 64 63 60 58 58 61 60 64 68 68 67 68 66 63 63 61 50 55 53 54 55 62 64 57 52 51 52 48
60 63 63 63 63 64 64 65 63 64 62 64 63 65 65 65 64 65 64 65 64 60 54 50 50 50 54 55 57 51 50 46 46

GFSFLT1_sfc_dewp_033.txt.gz
Dewpoint
54 56 57 58 61 64 65 66 68 68 70 71 72 72 73 74 74 71 71 72 69 69 69 70 74 75 75 75 75 74 73 71 69
49 54 56 58 60 62 63 65 67 69 70 71 72 71 73 73 74 74 72 74 74 70 73 70 73 74 75 75 74 73 73 70 70
45 49 53 56 59 61 62 63 66 68 69 70 71 71 72 71 72 73 73 74 74 73 73 73 73 74 74 74 74 74 73 70 71
41 46 49 51 56 59 62 62 64 66 68 69 70 71 72 72 72 72 73 73 74 74 74 74 74 74 74 74 74 73 73 72 70
41 46 50 50 51 55 58 62 62 64 66 67 69 70 71 72 72 73 72 73 73 74 74 74 75 74 74 74 74 73 73 71 69
42 45 49 51 50 53 58 60 62 62 64 65 66 70 70 71 71 72 72 73 73 74 74 75 73 74 74 73 73 73 73 72 71
39 45 50 52 54 57 58 60 63 63 63 64 65 67 69 71 72 72 72 73 74 74 74 74 74 74 74 73 73 73 72 72 71
42 42 46 52 55 60 62 63 64 64 64 66 66 68 68 70 72 73 73 73 74 74 74 74 74 74 74 73 72 70 72 72 71
41 39 43 48 55 58 60 62 64 64 65 65 68 69 68 71 72 73 73 73 74 74 74 74 74 74 74 73 71 66 66 70 71
42 41 43 46 48 54 59 60 63 63 65 66 68 69 70 71 72 73 73 73 74 74 74 74 74 73 73 73 73 63 63 66 70
40 41 42 46 41 49 59 56 54 62 64 68 68 69 70 71 71 72 73 73 73 74 74 74 74 74 73 73 73 62 62 64 71
42 43 45 46 42 47 59 59 62 64 65 67 68 69 70 71 71 71 72 72 73 73 73 73 73 74 74 73 73 61 60 64 70
37 38 41 46 46 51 54 60 59 63 63 67 68 69 70 71 72 72 72 73 73 74 73 73 72 73 74 71 73 61 59 63 68
45 47 49 50 51 57 60 62 61 64 65 66 68 68 69 72 73 73 73 74 74 74 73 73 73 73 74 74 73 72 58 58 70
53 59 58 52 57 59 62 64 65 67 69 68 69 70 71 73 74 71 71 74 73 74 74 74 74 73 73 72 74 65 58 56 60
64 66 67 68 68 67 66 66 67 68 69 69 70 71 72 73 73 73 74 74 73 72 74 72 72 71 71 71 73 72 59 57 57
68 68 68 69 68 68 68 69 70 70 70 70 70 71 72 73 73 73 74 73 72 72 71 71 71 71 71 71 73 71 63 62 60
65 64 62 62 61 60 61 63 64 66 70 72 69 69 69 70 70 71 73 73 73 71 73 71 71 71 71 73 68 63 59 60 64
64 65 66 66 65 65 64 63 63 64 65 67 71 71 68 65 65 67 69 72 69 53 51 55 55 57 68 71 57 51 50 48 50
61 64 64 66 64 65 66 66 66 65 67 67 66 67 69 68 66 68 69 69 69 68 62 49 49 50 51 54 53 50 50 49 51

GFSFLT1_sfc_dewp_036.txt.gz
Dewpoint
45 53 55 56 60 62 64 64 67 68 72 75 75 74 77 77 78 71 71 74 70 69 67 68 72 73 74 75 75 76 76 73 72
36 50 54 57 58 61 64 66 68 70 73 74 74 73 76 77 77 76 72 75 75 70 74 69 71 73 75 75 75 76 76 72 73
36 44 52 53 57 59 62 64 66 69 72 73 74 73 74 74 75 77 76 76 76 75 74 75 72 73 74 74 75 76 76 73 73
35 41 48 51 53 56 59 61 64 66 69 72 72 73 74 74 73 74 75 75 76 77 75 76 75 75 74 73 74 75 76 75 73
35 39 43 46 49 53 57 60 61 63 65 67 69 72 75 74 74 74 73 75 76 77 77 76 76 76 75 74 73 74 75 74 72
37 39 44 46 47 49 53 57 61 61 63 64 65 70 70 71 72 73 74 76 76 77 77 77 74 75 77 75 74 75 75 74 73
33 41 43 44 47 49 50 56 62 65 62 62 64 65 68 71 73 73 74 75 76 76 77 77 77 77 77 76 74 74 73 74 73
32 35 39 43 48 52 58 59 62 66 63 64 64 68 67 71 74 75 75 75 76 77 77 77 77 77 77 77 74 70 75 75 73
35 37 35 35 42 54 58 60 62 63 66 65 66 70 70 72 75 75 75 76 77 77 77 77 77 77 77 76 71 65 66 72 73
34 36 38 40 41 47 52 56 61 62 66 66 69 70 72 73 75 75 76 76 77 77 77 77 77 77 77 77 76 63 64 67 72
34 34 35 39 36 39 46 49 46 56 61 70 70 72 72 73 75 75 76 77 76 77 77 77 77 77 77 77 76 64 62 65 73
37 38 39 39 37 38 49 48 51 53 59 65 68 71 72 73 74 73 74 76 76 76 75 76 76 75 77 77 76 63 61 65 72
35 36 39 40 41 40 42 52 53 57 58 62 68 70 71 73 74 74 74 76 77 76 75 74 73 74 76 73 77 63 59 64 69
52 50 48 48 50 49 52 55 57 59 60 62 66 68 69 72 74 75 76 77 77 76 75 74 75 75 75 77 75 75 58 59 72
58 56 48 50 55 53 56 63 63 64 69 67 69 70 70 73 75 71 71 77 77 77 76 76 76 75 73 73 76 67 59 58 62
60 55 54 58 55 59 63 67 66 67 71 71 71 71 73 73 73 73 75 75 75 73 75 71 72 71 70 71 70 74 61 56 58
58 60 64 64 65 64 67 69 69 70 72 71 71 72 73 73 73 73 74 71 72 71 70 70 69 70 69 70 70 71 72 66 61
63 66 68 68 68 67 69 70 71 71 71 71 71 72 71 72 71 73 73 73 71 70 72 68 70 70 70 68 69 70 67 64 64
66 66 65 65 65 65 65 65 66 68 71 72 70 69 67 65 65 68 69 69 71 56 55 51 48 49 58 68 57 53 52 51 50
64 66 66 66 66 67 68 68 68 68 69 68 68 67 70 68 64 62 64 67 68 68 62 50 48 46 48 54 53 49 48 47 49